DW5595 Weather Reports


time (UTC)temp
C
wind
direction
speed
KPH
gust
KPH
rain 1hr
cm
rain 24hr
cm
rain mn
cm
humidity
%
barometer
mb
20260901134534 25 269 3.2 3.2 0.00 0.00 0.00 88 1020.8
20260901133038 23 23 0.0 0.0 0.00 0.00 0.00 89 1020.8
20260901131540 23 238 0.0 0.0 0.00 0.00 0.00 92 1020.9
20260901130038 22 160 0.0 0.0 0.00 0.00 0.00 96 1020.7
20260901124531 21 172 0.0 0.0 0.00 0.00 0.00 97 1020.7
20260901123039 21 172 0.0 0.0 0.00 0.00 0.00 97 1020.7
20260901121528 20 172 0.0 1.6 0.00 0.00 0.00 97 1020.4
20260901120023 20 254 0.0 0.0 0.00 0.00 0.00 96 1020.3
20260901114517 20 254 0.0 0.0 0.00 0.00 0.00 96 1020.3
20260901113014 20 146 0.0 0.0 0.00 0.00 0.00 96 1020.1
20260901111511 19 148 0.0 0.0 0.00 0.00 0.00 96 1019.9
20260901110008 19 148 0.0 0.0 0.00 0.00 0.00 96 1019.6
20260901104531 19 148 0.0 0.0 0.00 0.00 0.00 96 1019.5
20260901103026 20 148 0.0 0.0 0.00 0.00 0.00 96 1019.6
20260901101528 20 148 0.0 0.0 0.00 0.00 0.00 96 1019.6
20260901100029 20 148 0.0 0.0 0.00 0.00 0.00 96 1019.5
20260901094517 20 148 0.0 0.0 0.00 0.00 0.00 96 1019.4
20260901093013 20 148 0.0 0.0 0.00 0.00 0.00 96 1019.5
20260901091511 20 148 0.0 0.0 0.00 0.00 0.00 96 1019.4
20260901090041 20 148 0.0 0.0 0.00 0.00 0.00 96 1019.3
20260901084530 20 148 0.0 0.0 0.00 0.00 0.00 96 1019.5
20260901083035 20 148 0.0 0.0 0.00 0.00 0.00 96 1019.6
20260901081524 20 148 0.0 0.0 0.00 0.00 0.00 96 1019.6
20260901080017 20 148 0.0 0.0 0.00 0.00 0.00 96 1019.6
20260901074519 20 148 0.0 0.0 0.00 0.00 0.00 96 1019.6
20260901073027 20 148 0.0 0.0 0.00 0.00 0.00 96 1019.8
20260901071530 20 148 0.0 0.0 0.00 0.00 0.00 95 1019.9
20260901070031 21 148 0.0 0.0 0.00 0.00 0.00 95 1019.8
20260901064535 21 148 0.0 0.0 0.00 0.00 0.00 96 1019.9
20260901063023 21 148 0.0 0.0 0.00 0.00 0.00 96 1019.9
20260901061523 21 148 0.0 0.0 0.00 0.00 0.00 95 1020.3
20260901060013 21 148 0.0 0.0 0.00 0.00 0.00 95 1020.1
20260901054535 21 148 0.0 0.0 0.00 0.00 0.00 95 1020.3
20260901053031 21 148 0.0 0.0 0.00 0.00 0.00 95 1020.3
20260901051535 21 148 0.0 0.0 0.00 0.00 0.00 95 1020.3
20260901050029 21 148 0.0 0.0 0.00 0.00 0.00 95 1020.3
20260901044532 21 148 0.0 0.0 0.00 0.00 0.00 95 1020.1
20260901043026 21 148 0.0 0.0 0.00 0.00 0.00 94 1020.2
20260901041523 22 148 0.0 0.0 0.00 0.00 0.00 94 1020.3
20260901040036 22 148 0.0 0.0 0.00 0.00 0.00 94 1020.1
20260901034535 22 148 0.0 0.0 0.00 0.00 0.00 94 1020.0
20260901033031 22 148 0.0 0.0 0.00 0.00 0.00 94 1020.0
20260901031547 22 148 0.0 0.0 0.00 0.00 0.00 94 1020.1
20260901030029 22 148 0.0 0.0 0.00 0.00 0.00 93 1020.1
20260901024533 22 148 0.0 0.0 0.00 0.00 0.00 93 1020.2
20260901023015 23 148 0.0 0.0 0.00 0.00 0.00 93 1020.1
20260901021532 23 148 0.0 0.0 0.00 0.00 0.00 93 1020.0
20260901020031 23 148 0.0 0.0 0.00 0.00 0.00 92 1020.0
20260901014531 23 148 0.0 0.0 0.00 0.00 0.00 92 1019.8
20260901013033 23 148 0.0 0.0 0.00 0.00 0.00 92 1019.6
20260901011528 23 148 0.0 0.0 0.00 0.00 0.00 91 1019.5
20260901010037 24 148 0.0 0.0 0.00 0.00 0.00 90 1019.3
20260901004537 25 148 0.0 0.0 0.00 0.00 0.00 89 1019.2
20260901003035 25 148 0.0 0.0 0.00 0.00 0.00 88 1019.1
20260901001515 25 148 0.0 0.0 0.00 0.00 0.00 86 1019.1
20260901000028 26 148 0.0 0.0 0.00 0.00 0.00 86 1018.9
20260831234533 27 5 0.0 0.0 0.00 0.00 0.00 84 1018.9
20260831233034 27 5 0.0 0.0 0.00 0.00 0.00 80 1018.8
20260831231530 27 5 0.0 0.0 0.00 0.00 0.00 80 1018.8
20260831230023 28 5 0.0 0.0 0.00 0.00 0.00 77 1019.1
20260831224517 28 5 0.0 0.0 0.00 0.00 0.00 78 1019.2
20260831223019 28 5 0.0 0.0 0.00 0.00 0.00 76 1019.2
20260831221542 29 9 0.0 0.0 0.00 0.00 0.00 72 1019.3
20260831220031 30 5 0.0 3.2 0.00 0.00 0.00 71 1019.3
20260831214536 30 15 1.6 4.8 0.00 0.00 0.00 68 1019.4
20260831213026 30 32 1.6 4.8 0.00 0.00 0.00 67 1019.4
20260831211524 30 150 0.0 1.6 0.00 0.00 0.00 64 1019.3
20260831210016 30 128 0.0 1.6 0.00 0.00 0.00 67 1019.5
20260831204528 30 128 0.0 1.6 0.00 0.00 0.00 67 1019.6
20260831203040 30 169 0.0 0.0 0.00 0.00 0.00 66 1019.6
20260831201537 30 169 0.0 0.0 0.00 0.00 0.00 65 1019.7
20260831200035 32 169 0.0 3.2 0.00 0.00 0.00 58 1019.8
20260831194556 32 38 1.6 4.8 0.00 0.00 0.00 55 1020.0
20260831193023 32 166 3.2 6.4 0.00 0.00 0.00 61 1020.0
20260831191538 31 316 1.6 4.8 0.00 0.00 0.00 57 1020.3
20260831190018 31 337 3.2 8.0 0.00 0.00 0.00 54 1020.1
20260831184544 31 31 1.6 3.2 0.00 0.00 0.00 57 1020.2
20260831183031 32 156 0.0 3.2 0.00 0.00 0.00 59 1020.4
20260831181535 31 181 1.6 8.0 0.00 0.00 0.00 61 1020.6
20260831180004 31 163 0.0 3.2 0.00 0.00 0.00 58 1020.7
20260831174503 31 251 0.0 6.4 0.00 0.00 0.00 58 1020.9
20260831173031 31 188 3.2 8.0 0.00 0.00 0.00 58 1020.9
20260831171538 31 147 3.2 8.0 0.00 0.00 0.00 66 1021.1
20260831170031 31 184 0.0 3.2 0.00 0.00 0.00 65 1021.1
20260831164535 31 315 3.2 6.4 0.00 0.00 0.00 63 1021.3
20260831163010 30 5 0.0 1.6 0.00 0.00 0.00 65 1021.4
20260831161507 30 165 0.0 4.8 0.00 0.00 0.00 64 1021.5
20260831160034 30 146 0.0 3.2 0.00 0.00 0.00 67 1021.6
20260831154615 28 9 0.0 4.8 0.00 0.00 0.00 71 1021.5
20260831153020 28 352 0.0 3.2 0.00 0.00 0.00 72 1021.5
20260831151533 27 350 0.0 3.2 0.00 0.00 0.00 73 1021.5
20260831150014 27 23 0.0 3.2 0.00 0.00 0.00 76 1021.5
20260831144523 26 86 0.0 3.2 0.00 0.00 0.00 81 1021.7
20260831143008 25 330 0.0 4.8 0.00 0.00 0.00 84 1021.6
20260831141531 25 195 0.0 0.0 0.00 0.00 0.00 86 1021.6
20260831140032 23 321 0.0 3.2 0.00 0.00 0.00 89 1021.6